Tracking 30289 objects as of 29-Apr-2025
HD Live streaming from Space Station
objects crossing your sky now

STARLINK-33607

Track STARLINK-33607 now!
10-day predictions
STARLINK-33607 is classified as:


NORAD ID: 63323
Int'l Code: 2025-057S
Perigee: 485.9 km
Apogee: 488.1 km
Inclination: 43.0 °
Period: 94.2 minutes
Semi major axis: 6857 km
RCS: Unknown
Launch date: March 18, 2025
Source: United States (US)
Launch site: AIR FORCE EASTERN TEST RANGE (AFETR)
Your satellite tracking list
Your tracking list is empty




NASA's NSSDC Master Catalog

Two Line Element Set (TLE):
1 63323U 25057S   25119.16667824 -.00338998  00000-0 -12467-1 0  9997
2 63323  43.0007   7.0868 0001539 276.9542 154.1566 15.28645889  7309
Source of the keplerian elements: AFSPC